This is the latest recevied weather packets stored in our database for station/object N6RDS. If no packets are shown the sender has not sent any weather packets the latest 10 day(s).
| Time | Temp. | Humidity | Pressure | Rain* | Wind** | Luminosity | Snow |
|---|---|---|---|---|---|---|---|
| 1777767371 | 18.33° C | 26% | 1025.6 hPa | 0 mm | - | 64 W/m² | - |
| 1777767069 | 18.33° C | 26% | 1025.8 hPa | 0 mm | - | 71 W/m² | - |
| 1777766766 | 18.33° C | 27% | 1025.8 hPa | 0 mm | - | 73 W/m² | - |
| 1777766463 | 18.33° C | 26% | 1025.5 hPa | 0 mm | - | 72 W/m² | - |
| 1777766159 | 18.33° C | 26% | 1026 hPa | 0 mm | - | 82 W/m² | - |
| 1777765858 | 18.33° C | 25% | 1025.5 hPa | 0 mm | - | 77 W/m² | - |
| 1777765553 | 18.89° C | 25% | 1025.4 hPa | 0 mm | - | 74 W/m² | - |
| 1777765251 | 18.89° C | 24% | 1026 hPa | 0 mm | - | 73 W/m² | - |
| 1777764951 | 18.89° C | 24% | 1025.5 hPa | 0 mm | - | 74 W/m² | - |
| 1777764649 | 20° C | 23% | 1025.5 hPa | 0 mm | - | 71 W/m² | - |
| 1777764344 | 20° C | 23% | 1025.5 hPa | 0 mm | - | 87 W/m² | - |
| 1777764042 | 20° C | 22% | 1025.9 hPa | 0 mm | - | 117 W/m² | - |
| 1777763739 | 18.89° C | 23% | 1025.6 hPa | 0 mm | - | 387 W/m² | - |
| 1777763437 | 18.89° C | 24% | 1025.8 hPa | 0 mm | - | 267 W/m² | - |
| 1777763135 | 19.44° C | 23% | 1025.9 hPa | 0 mm | - | 75 W/m² | - |
| 1777762833 | 20° C | 23% | 1025.9 hPa | 0 mm | - | 78 W/m² | - |
| 1777762528 | 20° C | 23% | 1025.9 hPa | 0 mm | - | 81 W/m² | - |
| 1777762226 | 19.44° C | 23% | 1025.9 hPa | 0 mm | - | 80 W/m² | - |
| 1777761922 | 20.56° C | 21% | 1025.8 hPa | 0 mm | - | 95 W/m² | - |
| 1777761619 | 20.56° C | 22% | 1025.6 hPa | 0 mm | - | 292 W/m² | - |
| 1777761317 | 21.67° C | 22% | 1025.8 hPa | 0 mm | - | 414 W/m² | - |
| 1777761015 | 20.56° C | 22% | 1025.8 hPa | 0 mm | - | 487 W/m² | - |
| 1777760712 | 20° C | 22% | 1026.1 hPa | 0 mm | - | 512 W/m² | - |
| 1777760408 | 18.89° C | 23% | 1026.1 hPa | 0 mm | - | 313 W/m² | - |
| 1777760104 | 19.44° C | 23% | 1026 hPa | 0 mm | - | 143 W/m² | - |
* Rain latest hour (hover to see other rain measurements)
** Current wind speed in m/s (hover to see current wind gust speed)